Lubbock, TX

5:06 AM CST on December 10, 2019 (GMT -0600)
Lubbock International

Weather History for KLBB - May, 2019

Change the Weather History Date:

Tuesday, May 7, 2019

  Actual Average Record
Temperature  
Mean Temperature 71 °F 67 °F  
Max Temperature 80 °F 81 °F 100 °F (2009)
Min Temperature 61 °F 53 °F 29 °F (1917)
Degree Days  
Heating Degree Days 0 2  
Month to date heating degree days 8 16  
Since 1 July heating degree days 3405 3353  
Cooling Degree Days 6 4  
Month to date cooling degree days 26 25  
Year to date cooling degree days 89 81  
Growing Degree Days 20 (Base 50)    
Moisture  
Dew Point 60 °F    
Average Humidity 69    
Maximum Humidity 93    
Minimum Humidity 44    
Precipitation  
Precipitation 0.11 in 0.05 in 1.87 in (1949)
Month to date precipitation 0.12 0.38  
Year to date precipitation 3.04 4.29  
Snow  
Snow T in 0.00 in 0.70 in (1991)
Month to date snowfall T 0.0  
Since 1 July snowfall 10.1 8.2  
Snow Depth 0.00 in    
Sea Level Pressure  
Sea Level Pressure 29.79 in    
Wind  
Wind Speed 15 mph (SSE)    
Max Wind Speed 39 mph    
Max Gust Speed 45 mph    
Visibility 10 miles    
Events Rain , Thunderstorm    
T = Trace of Precipitation, MM = Missing Value Source: NWS Daily Summary

Daily Weather History Graph

Daily Weather History Graph

Search for Another Location

Airport or City:

Astronomy

May. 07, 2019 Rise Set
Actual Time 6:53 AM CDT 8:34 PM CDT
Civil Twilight 6:26 AM CDT 9:01 PM CDT
Nautical Twilight 5:53 AM CDT 9:34 PM CDT
Astronomical Twilight 5:19 AM CDT 10:08 PM CDT
Moon 9:03 AM CDT (5/7) 11:33 PM CDT (5/7)
Length of Visible Light 14h 35m
Length of Day
13h 41m
Waxing Crescent, 9% of the Moon is Illuminated
May 7
Waxing Crescent
May 11
First Quarter
May 18
Full
May 26
Last Quarter
Jun 3
New

Hourly Weather History & Observations

Time (CDT) Temp. Dew Point Humidity Pressure Visibility Wind Dir Wind Speed Gust Speed Precip Events Conditions
12:53 AM 64.9 °F 59.0 °F 81% 29.80 in 10.0 mi SSE 10.4 mph - N/A   Mostly Cloudy
1:53 AM 64.9 °F 59.0 °F 81% 29.79 in 10.0 mi SSE 12.7 mph - N/A   Partly Cloudy
2:53 AM 62.1 °F 59.0 °F 90% 29.79 in 10.0 mi SE 11.5 mph - N/A   Clear
3:53 AM 62.1 °F 59.0 °F 90% 29.76 in 10.0 mi SE 12.7 mph - N/A   Clear
4:21 AM 63.0 °F 59.0 °F 87% 29.90 in 10.0 mi SE 9.2 mph - N/A   Mostly Cloudy
4:53 AM 63.0 °F 60.1 °F 90% 29.76 in 10.0 mi SSE 11.5 mph - N/A   Overcast
5:53 AM 64.9 °F 61.0 °F 87% 29.79 in 10.0 mi South 11.5 mph - N/A   Overcast
6:02 AM 64.9 °F 61.0 °F 87% 29.93 in 10.0 mi South 12.7 mph - N/A   Overcast
6:44 AM 64.0 °F 61.0 °F 90% 29.93 in 10.0 mi SSE 10.4 mph - N/A   Scattered Clouds
6:53 AM 64.9 °F 61.0 °F 87% 29.81 in 10.0 mi SSE 10.4 mph - N/A   Mostly Cloudy
7:15 AM 63.0 °F 61.0 °F 93% 29.93 in 10.0 mi ESE 10.4 mph - N/A   Scattered Clouds
7:51 AM 62.6 °F 60.8 °F 94% 29.94 in 10.0 mi ESE 10.4 mph - N/A   Partly Cloudy
7:53 AM 63.0 °F 61.0 °F 93% 29.81 in 10.0 mi ESE 9.2 mph - N/A   Scattered Clouds
8:20 AM 64.0 °F 61.0 °F 90% 29.94 in 10.0 mi SE 12.7 mph - N/A   Mostly Cloudy
8:53 AM 64.0 °F 61.0 °F 90% 29.82 in 9.0 mi SE 13.8 mph - N/A   Overcast
9:11 AM 64.9 °F 61.0 °F 87% 29.94 in 8.0 mi SE 13.8 mph - N/A   Overcast
9:29 AM 64.9 °F 62.1 °F 90% 29.94 in 10.0 mi SE 13.8 mph - N/A   Overcast
9:53 AM 66.0 °F 62.1 °F 87% 29.81 in 10.0 mi SE 15.0 mph - N/A   Overcast
10:38 AM 66.9 °F 62.1 °F 84% 29.91 in 10.0 mi SE 17.3 mph - N/A   Mostly Cloudy
10:53 AM 69.1 °F 62.1 °F 78% 29.79 in 10.0 mi SE 20.7 mph - N/A   Mostly Cloudy
11:06 AM 69.1 °F 62.1 °F 78% 29.92 in 10.0 mi SE 17.3 mph - N/A   Mostly Cloudy
11:27 AM 72.0 °F 61.0 °F 68% 29.92 in 10.0 mi South 24.2 mph 29.9 mph N/A   Overcast
11:53 AM 71.1 °F 61.0 °F 70% 29.81 in 10.0 mi South 20.7 mph 28.8 mph N/A   Overcast
12:53 PM 75.9 °F 62.1 °F 62% 29.77 in 10.0 mi SSE 23.0 mph - N/A   Mostly Cloudy
1:53 PM 77.0 °F 61.0 °F 58% 29.76 in 10.0 mi South 20.7 mph 27.6 mph N/A   Mostly Cloudy
2:53 PM 79.0 °F 61.0 °F 54% 29.72 in 10.0 mi South 20.7 mph 29.9 mph N/A   Mostly Cloudy
3:53 PM 79.0 °F 61.0 °F 54% 29.69 in 10.0 mi South 26.5 mph 34.5 mph N/A   Mostly Cloudy
4:53 PM 75.0 °F 61.0 °F 62% 29.65 in 10.0 mi SSE 24.2 mph 32.2 mph N/A   Mostly Cloudy
5:01 PM 73.9 °F 61.0 °F 64% 29.78 in 10.0 mi SSE 24.2 mph 32.2 mph N/A Thunderstorm Thunderstorm
5:53 PM 71.1 °F 64.0 °F 78% 29.66 in 10.0 mi SSE 24.2 mph 32.2 mph 0.00 in Rain , Thunderstorm Light Thunderstorms and Rain
6:53 PM 71.6 °F 64.4 °F 78% 29.65 in 10.0 mi SSE 21.9 mph 26.5 mph 0.01 in Thunderstorm Thunderstorm
7:35 PM 72.0 °F 52.0 °F 49% 29.74 in 10.0 mi SSE 32.2 mph 43.7 mph 0.00 in Rain Light Rain
7:53 PM 69.8 °F 46.4 °F 43% 29.62 in 10.0 mi SSE 17.3 mph - 0.00 in   Mostly Cloudy
8:53 PM 66.0 °F 53.1 °F 63% 29.68 in 10.0 mi South 13.8 mph - N/A   Mostly Cloudy
9:53 PM 66.9 °F 57.9 °F 73% 29.69 in 10.0 mi North 5.8 mph - N/A   Mostly Cloudy
10:49 PM 64.4 °F 59.0 °F 83% 29.81 in 10.0 mi SW 4.6 mph - N/A Thunderstorm Thunderstorm
10:53 PM 64.9 °F 60.1 °F 84% 29.69 in 10.0 mi SSW 4.6 mph - N/A Thunderstorm Thunderstorm
11:29 PM 64.9 °F 62.1 °F 90% 29.80 in 8.0 mi WNW 4.6 mph - 0.10 in Rain , Thunderstorm Light Thunderstorms and Rain
11:46 PM 64.9 °F 62.1 °F 90% 29.78 in 10.0 mi Calm Calm - 0.10 in   Mostly Cloudy
11:53 PM 64.9 °F 62.1 °F 90% 29.65 in 10.0 mi Calm Calm - 0.10 in   Scattered Clouds